ARIANE 5 DEB [SYLDA] (43826 NORAD) Tracking and Keplerian Element Data

This shows tracking and keplerian element data for the satellite.

Feedback or suggestion? Click here.




ElementValue
Catalog43826
NameARIANE 5 DEB [SYLDA]
Epoch Orbit64
Epoch Day2.03480309
Epoch Year2019
RAAN196.0863
Inclination3.4715
Eccentricity0.7279839
Argument of Perigee201.4388
Mean Anonmoly96.1762
Mean Motion2.2832992
Decay Rate3.7E-07
L11 43826U 18100D 19002.03480309 .00000037 00000-0 00000+0 0 9991
L22 43826 3.4715 196.0863 7279839 201.4388 96.1762 2.28329920 647

Live tracking and technical data element details for ARIANE 5 DEB [SYLDA] (NORAD 43826). ARIANE 5 DEB [SYLDA] can be tracked NOW for your location showing map with azimuth and elevation plus other details from your city location.

Track the satellite on the map from your city or location and see movement details for azimuth, elevation, latitude, longitude, range, height, and movement on the map or in text.







IsCatalogInMostPopularTable: catalog: 43826, numindb: 35
Update: records affected: 1



GetName: 43826 ARIANE 5 DEB [SYLDA]

Hit Count: updated at: Tue, 23 Apr 2019 20:13:24 GMT